Theta_e
312 314 317 317 319 317 316 316 312 315 316 313 322 319 325 323 323 323 332 334 330 332 336 339 337 334 334 332 331 332 331 335 336 334 331 328 329 329 331 328 329 329 329 328 328 328 328 330 330
313 317 318 313 321 320 317 312 314 314 316 317 317 322 324 325 327 331 335 333 332 333 337 338 336 331 330 331 330 332 331 333 336 334 329 329 329 329 330 328 327 329 329 328 329 327 327 327 328
316 316 317 316 314 320 317 311 313 314 318 314 320 319 323 327 327 333 336 332 333 334 336 337 334 330 328 330 330 332 329 335 335 333 329 329 328 328 329 327 328 328 328 329 329 329 328 328 327
317 311 309 316 316 315 313 312 312 314 313 312 318 323 321 325 333 336 336 333 333 334 335 337 333 330 328 330 329 330 331 334 334 331 329 329 328 328 328 327 327 328 327 329 329 328 328 328 326
313 309 314 314 315 313 310 312 311 314 314 315 316 320 326 328 333 337 337 334 333 333 335 335 332 330 329 330 327 330 330 332 332 332 329 328 327 327 328 325 326 327 326 328 328 327 328 325 324
312 309 315 316 314 312 313 311 312 313 312 315 319 323 327 329 335 337 337 335 333 333 335 334 333 330 331 330 327 330 330 330 331 330 328 327 327 326 327 324 325 326 324 326 327 326 324 323 322
312 311 313 313 313 315 315 309 312 311 312 315 318 322 321 328 336 337 337 335 333 333 335 334 333 331 328 326 328 330 330 329 329 329 326 324 324 324 325 324 325 325 324 324 324 325 323 322 321
307 310 312 312 314 316 311 311 311 311 312 312 316 318 320 326 337 337 337 336 333 335 335 334 334 333 328 326 329 329 329 329 328 328 323 320 321 322 324 323 325 324 324 324 324 325 323 322 321
307 311 312 312 312 314 308 313 309 309 311 311 316 314 317 330 337 336 338 338 339 339 336 335 335 334 330 326 326 326 327 328 327 326 321 318 317 320 323 322 323 323 322 324 324 321 321 320 319
311 311 311 309 310 311 309 311 310 312 312 313 315 316 327 333 336 334 333 333 333 333 334 334 336 334 332 328 326 325 324 325 324 323 320 316 315 317 320 321 322 322 322 322 318 318 318 318 318
309 312 310 309 309 310 310 311 309 311 313 312 313 316 328 331 334 334 334 335 334 335 336 333 335 335 333 330 326 324 323 323 324 322 319 315 315 316 317 318 319 319 316 316 317 317 317 317 317
311 309 308 309 310 310 310 308 310 310 313 309 308 314 327 330 333 334 333 334 335 335 335 337 336 335 334 332 329 325 323 322 323 321 319 316 315 316 316 316 315 314 314 315 316 316 316 317 317
309 308 307 308 308 308 309 310 310 309 307 306 307 317 327 331 333 334 334 332 332 334 333 335 337 334 334 333 331 328 324 322 322 321 319 317 316 316 316 316 314 314 314 315 315 316 316 316 316
308 308 308 308 308 308 309 307 308 307 305 305 310 314 321 328 331 331 334 334 333 333 334 333 335 335 334 334 332 331 329 324 322 322 320 318 317 316 316 316 315 313 312 313 314 314 315 315 315
307 310 308 308 308 309 308 308 308 306 305 306 306 308 315 322 326 330 333 333 334 333 334 334 335 337 333 334 334 331 329 328 325 322 321 319 318 317 317 316 315 314 312 312 312 314 314 315 314
307 306 309 307 308 308 307 308 306 305 305 306 304 302 303 312 321 326 330 332 334 334 334 334 334 335 333 332 333 332 331 329 327 326 323 321 319 318 317 316 315 314 312 312 312 313 313 313 313
306 308 308 308 307 309 307 308 305 306 306 307 305 302 302 302 305 318 325 328 331 333 334 334 334 334 335 332 331 332 331 330 329 326 326 324 322 320 318 317 315 314 312 312 313 312 312 311 311
308 308 306 307 308 309 309 308 306 305 305 306 304 304 303 303 303 307 312 321 324 328 331 333 335 334 333 333 330 330 329 330 330 329 327 326 324 322 320 319 318 314 313 313 312 312 311 310 310
306 306 306 306 307 309 308 307 308 306 306 306 305 305 305 304 306 307 308 308 310 320 324 328 331 333 333 332 330 330 329 328 329 328 328 327 325 324 322 321 319 316 315 315 313 310 309 307 306
306 307 307 307 308 309 308 308 307 306 306 306 307 306 305 305 304 304 305 307 307 308 314 322 326 329 332 333 332 331 330 329 330 329 328 327 326 325 324 322 321 320 316 313 312 312 308 305 304
305 305 306 307 306 305 304 305 305 305 304 304 303 304 304 304 304 303 303 304 305 305 307 312 320 325 328 331 331 332 331 330 329 329 328 329 328 328 327 324 322 322 318 317 315 312 310 304 303
307 304 305 307 307 306 304 306 305 304 303 303 304 303 302 300 300 300 300 301 303 305 305 306 311 321 326 329 331 329 330 329 329 329 329 329 329 329 328 325 323 323 322 318 317 313 311 306 302
306 303 305 307 306 307 307 308 305 303 306 306 305 303 304 303 304 303 303 305 305 305 305 305 305 314 323 328 330 329 329 329 329 329 329 328 328 329 328 325 323 321 319 319 318 312 308 305 302
304 305 304 304 305 308 305 305 304 304 305 305 305 303 301 303 304 303 304 306 309 312 309 306 304 308 316 324 328 329 328 328 329 328 328 328 328 328 326 324 322 319 318 318 317 313 308 305 305
305 305 308 309 309 308 304 305 305 304 302 303 304 302 304 304 304 303 303 305 308 314 315 313 310 310 315 321 325 326 326 326 326 327 327 327 327 326 325 323 321 319 318 316 314 313 312 307 304
305 305 308 308 310 307 305 307 307 304 303 304 306 307 306 305 303 303 302 304 306 309 316 316 315 314 317 319 321 323 324 325 325 325 325 326 325 325 322 321 318 318 316 315 314 313 311 307 305
308 308 305 305 295 307 305 304 304 305 304 308 308 308 306 305 304 303 302 303 305 307 309 316 316 316 315 316 318 320 321 322 323 323 323 322 321 321 319 320 318 317 315 313 312 311 310 309 307
306 305 308 306 305 306 305 305 307 307 308 309 309 309 306 305 304 302 302 303 304 306 307 310 314 315 315 316 317 318 320 321 321 321 321 320 319 318 316 315 314 312 311 310 309 307 307 307 306
307 307 307 306 307 308 305 305 301 305 304 307 308 307 306 304 303 302 301 303 304 305 306 307 309 312 314 315 316 317 317 318 319 318 316 314 312 311 310 309 309 308 308 306 306 306 305 305 304
309 307 307 309 307 306 307 308 307 303 305 307 307 306 305 303 301 300 301 302 303 304 305 306 306 307 308 309 311 312 312 312 311 311 310 309 309 308 307 307 306 306 306 306 304 303 302 301 301
Wind_Speed
7 7 4 6 4 4 1 2 0 3 4 2 5 5 5 2 4 2 1 12 21 25 21 16 12 12 13 13 15 16 14 17 16 16 16 16 17 18 17 18 19 19 19 20 19 19 20 21 20
4 2 4 2 4 2 3 2 6 4 3 7 4 3 1 2 1 2 10 14 24 25 21 17 13 11 13 14 15 16 13 16 16 16 16 16 16 17 16 18 17 18 18 18 19 20 21 21 21
1 2 3 4 3 4 4 4 5 2 5 3 3 2 3 3 1 11 7 23 26 24 21 17 14 11 13 14 14 15 14 15 16 15 15 16 16 17 16 17 18 17 17 18 19 21 21 22 24
2 4 4 4 3 3 2 4 4 6 2 3 3 3 1 2 6 7 18 26 27 23 20 17 14 12 13 13 14 16 15 14 15 15 15 15 15 16 16 17 18 17 16 18 19 20 21 23 24
4 3 4 3 2 2 3 3 6 4 4 1 2 4 1 2 5 11 21 26 26 22 19 17 14 13 13 13 14 16 14 14 13 13 13 14 15 15 16 16 15 16 15 18 18 19 21 23 22
3 3 4 2 2 1 1 5 6 3 3 1 1 5 2 3 12 17 22 26 23 23 20 18 15 13 13 13 14 15 13 13 12 11 11 14 14 15 15 15 15 16 13 15 17 18 21 19 18
5 4 3 4 3 2 5 6 5 5 5 4 4 4 1 4 11 19 23 24 22 22 21 19 16 14 13 13 13 14 14 13 12 10 11 13 14 16 16 14 15 15 15 16 16 17 17 17 17
4 4 3 1 3 2 5 5 3 5 5 2 2 3 3 6 15 20 21 23 20 21 22 20 18 16 15 14 13 14 14 12 13 12 11 13 14 17 17 14 15 15 15 16 16 15 16 15 15
3 4 2 3 5 3 4 4 1 0 5 2 5 3 2 16 21 22 18 18 18 20 22 21 20 18 16 15 14 14 14 13 13 12 11 13 13 16 16 14 15 15 15 15 14 14 14 13 13
4 4 8 4 4 2 5 4 8 4 2 3 2 1 6 22 24 21 17 18 19 22 22 23 23 21 19 17 16 15 15 14 13 12 12 13 14 15 15 15 15 15 14 14 12 13 11 11 13
2 5 5 4 3 4 5 2 2 6 3 6 8 5 10 13 17 20 19 19 21 24 23 24 24 23 22 20 19 18 16 15 15 14 13 14 15 16 15 15 15 15 13 12 12 12 12 13 14
5 2 5 4 3 4 6 6 3 4 4 2 6 6 12 15 19 22 22 27 27 27 26 24 24 25 24 22 21 19 19 18 17 16 15 16 16 16 16 15 14 11 11 12 13 12 12 13 13
3 4 4 3 5 4 4 2 3 6 7 3 4 8 13 15 19 20 19 26 27 28 28 26 25 26 26 25 23 22 21 20 18 17 17 17 17 17 16 15 14 13 12 11 13 12 13 13 13
4 3 4 3 3 2 3 1 0 3 3 3 5 7 8 14 21 16 20 27 30 31 32 29 26 26 27 28 28 26 23 22 21 20 19 19 18 18 17 17 16 14 12 12 11 11 12 13 13
4 4 3 3 2 2 1 4 7 4 2 3 7 6 7 12 15 24 31 30 34 35 34 34 29 27 28 30 29 29 26 24 24 23 22 21 21 20 19 18 17 16 15 14 13 13 14 14 15
4 5 3 1 4 2 3 8 5 3 3 9 8 6 7 7 21 26 30 31 32 33 35 35 33 32 29 30 29 31 30 28 26 24 25 25 24 23 22 21 21 19 17 16 15 14 14 14 15
6 4 2 4 2 2 3 6 5 3 3 5 6 8 7 8 14 27 32 32 33 35 37 37 37 35 33 30 30 30 33 32 30 29 29 28 28 26 25 25 23 21 19 19 18 17 16 17 17
4 3 2 4 2 2 2 9 8 6 4 8 7 7 7 8 14 27 29 33 34 35 36 38 40 39 36 32 31 30 29 32 34 33 32 33 32 32 30 29 27 25 23 22 22 21 20 19 19
5 3 5 2 2 2 5 7 14 6 5 9 9 9 9 11 15 21 21 22 29 35 37 39 39 41 36 33 32 30 31 31 34 35 34 36 35 35 34 32 32 30 31 30 28 26 23 23 24
4 4 2 1 2 3 4 10 12 8 7 8 9 9 11 6 7 9 12 16 23 30 37 40 42 40 38 35 36 30 31 30 33 35 36 36 35 36 36 38 37 36 34 34 34 33 31 26 28
4 6 4 4 1 2 4 7 7 4 3 5 8 10 6 8 11 10 14 18 19 26 31 37 42 42 41 37 30 28 26 25 29 34 36 36 34 36 40 42 42 40 40 41 40 40 38 35 34
5 7 5 4 3 3 2 5 5 6 9 6 11 6 7 7 6 6 11 13 12 17 20 30 35 39 39 36 32 34 31 25 30 31 35 35 36 34 38 41 44 43 45 45 45 44 44 35 30
6 6 7 3 4 2 2 1 6 2 6 10 4 4 1 5 5 6 6 8 6 7 11 17 27 32 35 35 34 31 30 28 25 31 31 33 34 35 37 40 42 44 45 46 45 45 45 42 24
10 7 7 4 3 2 6 6 4 5 7 3 3 0 4 5 4 4 5 6 5 4 2 8 16 25 29 32 33 30 29 27 27 27 29 29 32 33 35 35 38 40 41 43 45 45 43 44 41
3 7 2 1 1 5 3 2 7 7 8 5 5 6 5 4 2 4 5 10 11 9 5 3 7 14 19 24 26 27 27 27 29 28 25 25 28 30 32 32 33 35 36 35 36 36 39 40 40
7 7 6 8 4 3 2 7 7 6 4 4 4 4 5 2 1 4 5 8 9 9 8 7 7 8 11 16 19 21 23 25 23 23 22 23 25 25 26 25 24 24 25 27 31 32 35 35 37
5 6 4 7 3 3 5 7 9 9 7 3 4 2 5 2 2 4 5 7 7 8 7 7 8 7 8 12 15 17 18 17 16 16 14 14 13 11 13 13 16 18 20 23 26 30 32 33 33
7 9 4 2 4 4 5 5 8 1 6 6 5 2 2 1 2 2 3 5 5 5 7 8 8 9 8 8 9 10 11 11 10 9 9 10 9 10 12 13 14 16 17 18 20 23 26 27 30
3 4 3 5 5 6 2 7 7 10 7 8 5 5 5 4 4 2 2 3 5 6 7 8 9 9 10 10 11 11 11 10 9 8 7 6 7 9 10 12 14 15 15 16 17 20 22 25 27
3 7 7 6 6 2 3 9 3 5 6 8 7 6 4 4 3 3 4 5 6 8 8 9 9 9 9 9 9 10 10 8 7 4 4 5 6 9 10 11 12 13 14 15 16 18 20 23 25
Wind_Direction
333 338 3 39 55 62 132 197 203 133 139 163 129 146 187 156 169 207 226 160 157 153 153 155 151 140 134 126 122 122 122 113 112 102 96 95 96 98 95 95 93 94 90 86 83 83 84 85 88
328 342 55 81 89 75 264 231 173 194 153 121 112 106 127 188 132 94 131 160 157 152 153 157 152 142 136 130 127 124 124 120 115 105 101 101 99 101 97 92 94 96 89 88 87 88 87 88 89
320 62 84 91 110 168 195 207 154 132 150 132 107 33 156 180 158 160 162 160 159 155 156 158 153 146 142 136 133 129 122 117 123 108 106 106 104 106 102 95 98 94 90 90 90 92 91 89 88
182 28 48 90 193 222 212 172 145 125 267 244 120 135 241 254 164 172 155 161 161 158 159 159 155 153 149 143 137 133 130 120 127 120 113 112 110 111 108 103 101 99 97 94 94 95 94 95 94
53 57 70 88 225 257 243 151 143 132 157 178 153 187 162 150 155 154 157 165 165 161 162 162 161 159 155 150 144 139 139 131 132 128 121 117 115 115 113 106 105 106 102 99 98 98 99 106 100
48 89 74 166 238 257 113 171 137 131 129 153 109 142 186 176 155 157 163 168 172 165 167 166 166 164 162 160 152 146 145 147 142 139 130 123 121 119 117 110 110 112 111 104 100 103 108 112 111
114 83 151 151 187 138 173 162 151 155 144 235 149 133 242 201 171 165 166 170 174 171 172 171 168 167 169 165 160 155 151 155 150 151 139 134 130 128 127 116 114 117 111 109 110 109 117 124 121
107 93 94 214 186 186 167 176 138 148 210 62 145 201 202 193 166 167 168 171 175 175 178 176 174 173 173 171 169 163 162 159 152 157 150 143 140 134 134 128 120 120 119 119 117 114 121 122 121
147 70 137 203 158 204 150 157 312 219 125 213 198 167 283 166 160 163 165 170 175 177 183 182 182 181 179 177 175 173 171 169 165 163 158 150 142 142 142 137 130 128 124 121 120 126 128 128 125
85 109 198 192 189 207 188 191 169 144 156 192 228 230 129 160 162 165 177 180 181 182 184 189 190 187 185 183 181 180 179 177 175 171 163 156 150 150 149 147 139 130 130 130 130 129 131 133 130
145 163 189 188 206 142 175 198 200 140 220 214 195 188 152 166 175 176 186 191 189 186 184 194 193 194 191 189 188 187 186 184 181 178 173 165 160 161 160 157 157 147 147 137 136 137 136 137 136
118 153 170 143 140 131 160 129 193 226 223 145 209 171 165 177 188 191 194 196 193 195 192 193 194 198 198 197 196 195 194 192 190 186 182 177 173 172 170 169 167 162 148 147 148 147 144 145 143
125 154 155 88 103 93 116 212 224 242 252 252 81 160 181 186 199 204 202 201 201 201 201 199 195 198 204 202 203 201 201 201 198 195 192 190 185 182 179 177 176 174 167 164 158 157 156 155 151
149 99 118 89 104 100 145 225 219 267 313 252 180 194 200 202 199 199 203 207 207 208 209 207 201 198 204 207 209 208 208 207 206 205 203 200 198 193 191 186 185 184 179 173 172 170 168 165 163
108 107 67 53 17 40 140 297 229 242 15 298 235 230 219 220 208 207 211 212 212 213 214 213 206 201 203 208 214 213 215 214 213 213 211 210 206 204 203 200 196 196 191 189 184 178 175 175 171
81 52 114 274 134 335 108 262 276 23 195 248 265 258 250 236 228 222 222 222 221 220 219 218 214 208 205 208 212 218 218 216 216 222 219 217 216 214 211 210 209 204 201 198 194 189 181 179 178
12 172 155 319 204 124 149 255 271 91 54 302 279 260 249 257 246 234 231 229 228 226 225 223 221 216 211 210 213 216 222 220 220 219 220 224 221 222 219 218 218 213 207 204 204 197 197 189 188
177 161 176 222 170 95 183 257 269 272 288 273 277 272 265 255 247 240 233 232 232 231 230 229 226 223 218 212 215 217 218 225 223 223 222 224 224 224 222 221 222 218 212 210 209 207 202 203 199
137 137 169 215 25 194 238 262 275 266 264 274 254 257 250 247 259 258 248 239 236 234 231 230 224 224 213 207 207 209 212 217 226 228 226 228 227 227 225 223 223 219 219 218 212 205 207 199 197
134 137 218 56 45 197 339 286 272 255 239 225 249 247 244 257 268 256 258 248 240 235 230 228 226 223 213 209 212 210 214 217 225 232 236 234 231 231 231 229 227 224 220 220 218 212 203 207 199
152 158 174 184 183 70 338 287 280 306 264 267 248 250 261 258 280 280 269 268 256 241 235 231 227 222 218 210 207 208 208 215 218 225 233 235 240 237 236 234 233 229 227 224 223 221 219 204 205
184 200 154 141 109 233 359 280 302 278 293 276 272 272 271 276 280 292 294 289 266 256 247 238 232 223 220 212 204 207 209 210 216 221 226 238 240 241 241 238 236 236 232 230 230 229 226 218 205
210 125 142 119 111 55 329 341 263 287 279 264 274 294 55 332 317 317 326 317 305 268 250 239 230 227 222 215 207 209 214 221 229 226 231 234 239 243 245 241 238 237 236 236 234 232 228 224 217
150 85 53 57 96 285 204 177 249 199 213 258 154 96 329 332 339 352 17 31 35 20 257 232 217 220 222 221 211 213 217 221 222 224 230 235 239 244 241 240 239 238 239 240 240 237 234 226 229
73 108 44 7 359 230 333 170 245 250 232 226 250 300 307 317 351 14 20 33 36 38 56 123 182 204 212 217 215 218 220 224 231 236 234 238 242 242 243 239 237 239 240 244 247 248 247 243 234
193 161 160 190 194 229 61 232 255 243 270 256 270 285 300 287 133 61 37 43 43 40 52 85 122 165 185 196 206 212 217 223 231 237 243 248 253 256 257 248 243 246 248 251 251 253 254 251 248
203 213 156 103 21 62 219 284 288 260 266 251 233 227 290 294 121 78 61 59 53 53 67 97 124 142 172 190 199 204 214 222 230 235 237 241 240 244 246 247 248 249 251 251 252 253 253 252 253
168 153 84 5 138 229 261 269 230 161 202 204 205 177 224 288 50 59 50 59 74 78 75 87 109 129 145 162 174 181 187 196 203 209 214 220 234 245 252 255 258 256 255 255 253 254 254 253 255
149 177 93 129 160 177 232 254 215 208 194 189 183 164 159 167 171 179 99 87 89 86 87 93 101 113 126 141 150 158 163 175 186 195 214 227 245 264 264 267 267 266 262 258 254 255 257 257 254
354 185 158 171 214 234 150 258 173 201 187 160 170 171 145 136 129 77 68 78 77 84 91 97 104 113 118 130 137 145 146 152 163 178 225 249 257 262 267 263 265 266 267 263 257 257 260 260 260